Location: *
(37.5724°S, 58.0067°E)
Time: 18:45:54
(UTC+00:00)

NOSS 3-1 (A) - Pass Details

Date: 19 June 2021
Orbit: 729 x 1483 km, 63.4° (Epoch: 23 July)

Event Time Altitude Azimuth Distance (km) Brightness Sun altitude
Rises 15:08:32 0° 205° (SSW) 3,945 6.9 -25.3°
Reaches altitude 10° 15:13:06 10° 180° (S) 2,797 5.8 -26.2°
Enters shadow 15:13:46 11° 175° (S) 2,676 5.6 -26.4°
